"Pseudo-MPEC" for P22oZwt

Created 2026 Aug 13 23:35:24 UT using Find_Orb

Click here for an explanation of pseudo-MPECs

 
 Astrometry: 
     P22oZwt*0C2026 08 08.53333623 10 42.430-06 29 47.66   ~88EK 21.65wXNEOCPF52
     P22oZwt 0C2026 08 08.54545723 10 40.318-06 29 13.77   ~88EK 21.63wXNEOCPF52
     P22oZwt 0C2026 08 08.55757223 10 38.228-06 28 40.17   ~88EK 21.53wXNEOCPF52
     P22oZwt 0C2026 08 08.60789723 10 29.542-06 26 19.44   ~88H5 21.88GVNEOCPF52
     P22oZwt 0C2026 08 08.60870423 10 29.449-06 26 17.85   ~88H5 22.10GVNEOCPF52
     P22oZwt 1C2026 08 12.05255023 00 55.609-03 49 53.90   ~8C75 20.9 GXNEOCP033
     P22oZwt 1C2026 08 12.05617023 00 54.968-03 49 45.09   ~8C75 20.7 GXNEOCP033
     P22oZwt 1C2026 08 12.05978023 00 54.299-03 49 34.80   ~8C75 20.7 GXNEOCP033
     P22oZwt 1C2026 08 12.06340023 00 53.669-03 49 25.00   ~8C75 20.5 GXNEOCP033
     P22oZwt 1C2026 08 12.96524022 58 22.256-03 09 39.20   ~8CNo 21.1 GXNEOCP033
     P22oZwt 1C2026 08 12.96741022 58 21.896-03 09 33.30   ~8CNo 21.1 GXNEOCP033
     P22oZwt 1C2026 08 12.96956022 58 21.554-03 09 27.60   ~8CNo 21.0 GXNEOCP033

Station data:
(033) Karl Schwarzschild Observatory, Tautenburg  (N50.980139 E11.711240)
   Germany.  Observer B. Stecklum. 1.34-m f/3 Schmidt + CCD.
(F52) Pan-STARRS 2, Haleakala  (N20.707382 W156.255910)  US/Hawaii.
   Observers J. Herman, T. Lowe, P. Minguez, A. Schultz, I. Smith. Measurers
   K. Chambers, T. de Boer, J. Fairlamb, H. Gao, M. Huber, C.-C. Lin, E.
   Magnier, Y. Ramanjooloo, R. Wainscoat, R. Weryk. 1.8-m Ritchey-Chrétien +
   CCD.

Orbital elements:  P22oZwt
   Perihelion 2026 Jun 7.756360 +/- 0.154 TT = 18:09:09.5 (JD 2461199.256360)
Epoch 2026 Aug 12.0 TT = JDT 2461264.5   Earth MOID: 0.3209   Ma: 0.0181
M  19.222181544 +/- 0.6             (J2000 ecliptic)             AutoNEOCP
n   0.294621538 +/- 0.00988         Peri.  310.006897 +/- 0.26
a   2.236796051 +/- 0.05            Node   325.038908 +/- 0.10
e   0.44681965 +/- 0.0102           Incl.   25.117926 +/- 0.42
P   3.34533                H 21.60  G  0.15   U  9.6
q 1.237351622 +/- 0.00486    Q 3.236240481 +/- 0.0952
From 12 observations 2026 Aug. 8-12; mean residual 0".29
Residuals in arcseconds: 
260808 F52  .00   .05-    260808 F52  .50+  .31-    260812 033  .31-  .32+    
260808 F52  .21-  .08+    260812 033  .50+  .34+    260812 033  .39-  .24-    
260808 F52  .12-  .08-    260812 033  .32+  .50-    260812 033  .14-  .04-    
260808 F52  .18-  .35+    260812 033  .30-  .17+    260812 033  .34+  .02+    

Ephemerides (geocentric):
Date (UTC) HH   RA             Dec           delta  r     elong  mag " sig PA
---- --------  ------------   ------------  ------ ------ -----  --- --------
2026 08 14 00  22 55 27.385   -02 24 27.99  .42241 1.4102 156.3 21.4 1.13  67
2026 08 14 01  22 55 20.357   -02 22 40.53  .42251 1.4104 156.4 21.4 1.17  67
2026 08 14 02  22 55 13.328   -02 20 53.15  .42261 1.4106 156.4 21.4 1.21  66
2026 08 14 03  22 55 06.300   -02 19 05.86  .42271 1.4108 156.5 21.4 1.25  66
2026 08 14 04  22 54 59.272   -02 17 18.64  .42281 1.4110 156.5 21.4 1.30  65
2026 08 14 05  22 54 52.244   -02 15 31.51  .42292 1.4111 156.6 21.4 1.34  65
2026 08 14 06  22 54 45.216   -02 13 44.46  .42302 1.4113 156.6 21.4 1.39  64
2026 08 14 07  22 54 38.189   -02 11 57.50  .42312 1.4115 156.7 21.4 1.43  64
2026 08 14 08  22 54 31.161   -02 10 10.61  .42322 1.4117 156.7 21.4 1.48  63
2026 08 14 09  22 54 24.134   -02 08 23.81  .42333 1.4119 156.8 21.4 1.52  63
2026 08 14 10  22 54 17.108   -02 06 37.09  .42343 1.4121 156.8 21.4 1.57  63
2026 08 14 11  22 54 10.082   -02 04 50.46  .42353 1.4123 156.9 21.4 1.62  62
2026 08 14 12  22 54 03.056   -02 03 03.91  .42364 1.4125 156.9 21.4 1.66  62
2026 08 14 13  22 53 56.030   -02 01 17.44  .42374 1.4127 157.0 21.4 1.71  62
2026 08 14 14  22 53 49.005   -01 59 31.06  .42385 1.4129 157.0 21.4 1.76  61
2026 08 14 15  22 53 41.980   -01 57 44.77  .42396 1.4131 157.0 21.4 1.81  61
2026 08 14 16  22 53 34.956   -01 55 58.55  .42406 1.4133 157.1 21.4 1.86  61
2026 08 14 17  22 53 27.932   -01 54 12.43  .42417 1.4134 157.1 21.4 1.91  60
2026 08 14 18  22 53 20.909   -01 52 26.38  .42428 1.4136 157.2 21.4 1.96  60
2026 08 14 19  22 53 13.886   -01 50 40.43  .42438 1.4138 157.2 21.4 2.01  60
2026 08 14 20  22 53 06.864   -01 48 54.56  .42449 1.4140 157.3 21.4 2.06  60
2026 08 14 21  22 52 59.842   -01 47 08.77  .42460 1.4142 157.3 21.4 2.11  59
2026 08 14 22  22 52 52.821   -01 45 23.07  .42471 1.4144 157.4 21.4 2.16  59
2026 08 14 23  22 52 45.801   -01 43 37.46  .42482 1.4146 157.4 21.4 2.22  59
2026 08 15 00  22 52 38.781   -01 41 51.93  .42493 1.4148 157.5 21.4 2.27  59
2026 08 15 01  22 52 31.762   -01 40 06.49  .42504 1.4150 157.5 21.4 2.32  58
2026 08 15 02  22 52 24.743   -01 38 21.14  .42515 1.4152 157.6 21.4 2.38  58
2026 08 15 03  22 52 17.725   -01 36 35.87  .42526 1.4154 157.6 21.4 2.43  58
2026 08 15 04  22 52 10.708   -01 34 50.70  .42537 1.4156 157.7 21.4 2.49  58
2026 08 15 05  22 52 03.691   -01 33 05.61  .42549 1.4158 157.7 21.4 2.54  57
2026 08 15 06  22 51 56.675   -01 31 20.60  .42560 1.4159 157.7 21.4 2.60  57
2026 08 15 07  22 51 49.660   -01 29 35.69  .42571 1.4161 157.8 21.4 2.65  57
2026 08 15 08  22 51 42.646   -01 27 50.86  .42582 1.4163 157.8 21.4 2.71  57
2026 08 15 09  22 51 35.633   -01 26 06.12  .42594 1.4165 157.9 21.4 2.77  57
2026 08 15 10  22 51 28.620   -01 24 21.48  .42605 1.4167 157.9 21.4 2.82  56
2026 08 15 11  22 51 21.608   -01 22 36.92  .42617 1.4169 158.0 21.4 2.88  56
2026 08 15 12  22 51 14.597   -01 20 52.44  .42628 1.4171 158.0 21.4 2.94  56
2026 08 15 13  22 51 07.587   -01 19 08.06  .42640 1.4173 158.1 21.4 3.00  56
2026 08 15 14  22 51 00.578   -01 17 23.77  .42652 1.4175 158.1 21.4 3.06  56
2026 08 15 15  22 50 53.570   -01 15 39.57  .42663 1.4177 158.2 21.4 3.12  56
2026 08 15 16  22 50 46.563   -01 13 55.45  .42675 1.4179 158.2 21.4 3.18  55
2026 08 15 17  22 50 39.557   -01 12 11.43  .42687 1.4181 158.2 21.4 3.24  55
2026 08 15 18  22 50 32.552   -01 10 27.50  .42698 1.4183 158.3 21.4 3.30  55
2026 08 15 19  22 50 25.547   -01 08 43.66  .42710 1.4185 158.3 21.4 3.36  55
2026 08 15 20  22 50 18.544   -01 06 59.91  .42722 1.4187 158.4 21.4 3.42  55
2026 08 15 21  22 50 11.542   -01 05 16.25  .42734 1.4188 158.4 21.4 3.48  55
2026 08 15 22  22 50 04.541   -01 03 32.68  .42746 1.4190 158.5 21.4 3.54  54
2026 08 15 23  22 49 57.541   -01 01 49.20  .42758 1.4192 158.5 21.4 3.61  54